Hourly Weather Alhos Vedros

Today, 29 November, Sunday

Time Temperature Precipitation Wind Pressure Humidity
00:00 +11°C° 0.2 mm 4 mps 753 mmHg 81%
01:00 +11°C° 0.2 mm 4 mps 753 mmHg 82%
02:00 +11°C° 0.2 mm 4 mps 753 mmHg 82%
03:00 +11°C° 0.3 mm 4 mps 753 mmHg 83%
04:00 +11°C° 0.3 mm 4 mps 754 mmHg 84%
05:00 +11°C° 0.3 mm 4 mps 754 mmHg 84%
06:00 +11°C° 0.6 mm 4 mps 754 mmHg 83%
07:00 +10°C° 0.6 mm 5 mps 755 mmHg 82%
08:00 +12°C° 0.6 mm 5 mps 755 mmHg 81%
09:00 +13°C° 0.4 mm 5 mps 755 mmHg 77%
10:00 +14°C° 0.4 mm 5 mps 756 mmHg 74%
11:00 +15°C° 0.4 mm 5 mps 756 mmHg 70%
12:00 +15°C° 0.4 mm 5 mps 756 mmHg 69%
13:00 +15°C° 0.4 mm 4 mps 756 mmHg 68%
14:00 +17°C° 0.4 mm 4 mps 756 mmHg 66%
15:00 +16°C° 0.1 mm 3 mps 756 mmHg 70%
16:00 +14°C° 0.1 mm 3 mps 756 mmHg 75%
17:00 +13°C° 0.1 mm 2 mps 757 mmHg 79%
18:00 +13°C° 0.1 mm 2 mps 757 mmHg 81%
19:00 +12°C° 0.1 mm 3 mps 758 mmHg 83%
20:00 +12°C° 0.1 mm 3 mps 758 mmHg 85%
21:00 +12°C° 0 mm 3 mps 758 mmHg 87%
22:00 +12°C° 0 mm 3 mps 758 mmHg 89%
23:00 +12°C° 0 mm 4 mps 759 mmHg 90%

Tomorrow, 30 November, Monday

Time Temperature Precipitation Wind Pressure Humidity
00:00 +12°C° 0 mm 4 mps 759 mmHg 90%
01:00 +12°C° 0 mm 5 mps 759 mmHg 91%
02:00 +11°C° 0 mm 6 mps 758 mmHg 91%
03:00 +11°C° 0 mm 6 mps 759 mmHg 89%
04:00 +11°C° 0 mm 6 mps 759 mmHg 88%
05:00 +12°C° 0 mm 5 mps 759 mmHg 87%
06:00 +11°C° 0 mm 6 mps 759 mmHg 85%
07:00 +13°C° 0 mm 6 mps 760 mmHg 84%
08:00 +13°C° 0 mm 6 mps 760 mmHg 83%
09:00 +15°C° 0 mm 6 mps 760 mmHg 78%
10:00 +16°C° 0 mm 6 mps 760 mmHg 73%
11:00 +17°C° 0 mm 6 mps 760 mmHg 68%
12:00 +19°C° 0 mm 6 mps 760 mmHg 67%
13:00 +19°C° 0 mm 5 mps 760 mmHg 66%
14:00 +19°C° 0 mm 4 mps 760 mmHg 66%
15:00 +18°C° 0 mm 4 mps 760 mmHg 69%
16:00 +17°C° 0 mm 4 mps 761 mmHg 73%
17:00 +15°C° 0 mm 4 mps 761 mmHg 77%
18:00 +15°C° 0 mm 4 mps 761 mmHg 78%
19:00 +14°C° 0 mm 4 mps 761 mmHg 79%
20:00 +14°C° 0 mm 4 mps 762 mmHg 81%
21:00 +14°C° 0 mm 4 mps 762 mmHg 81%
22:00 +14°C° 0 mm 4 mps 762 mmHg 80%
23:00 +13°C° 0 mm 4 mps 762 mmHg 80%

Day after tomorrow, 1 December, Tuesday

Time Temperature Precipitation Wind Pressure Humidity
00:00 +13°C° 0 mm 4 mps 762 mmHg 81%
01:00 +13°C° 0 mm 4 mps 762 mmHg 81%
02:00 +13°C° 0 mm 3 mps 762 mmHg 81%
03:00 +13°C° 0 mm 3 mps 762 mmHg 82%
04:00 +12°C° 0 mm 3 mps 762 mmHg 83%
05:00 +12°C° 0 mm 3 mps 762 mmHg 83%
06:00 +12°C° 0 mm 3 mps 762 mmHg 82%
07:00 +13°C° 0 mm 3 mps 762 mmHg 80%
08:00 +13°C° 0 mm 3 mps 763 mmHg 79%
09:00 +14°C° 0 mm 3 mps 763 mmHg 73%
10:00 +17°C° 0 mm 3 mps 762 mmHg 68%
11:00 +18°C° 0 mm 3 mps 762 mmHg 62%
12:00 +19°C° 0 mm 2 mps 762 mmHg 61%
13:00 +19°C° 0 mm 2 mps 762 mmHg 59%
14:00 +21°C° 0 mm 1 mps 761 mmHg 57%
15:00 +19°C° 0 mm 1 mps 761 mmHg 63%
16:00 +17°C° 0 mm 2 mps 761 mmHg 69%
17:00 +15°C° 0 mm 2 mps 762 mmHg 75%
18:00 +15°C° 0 mm 2 mps 762 mmHg 76%
19:00 +14°C° 0 mm 2 mps 762 mmHg 78%
20:00 +14°C° 0 mm 2 mps 762 mmHg 79%
21:00 +13°C° 0 mm 2 mps 762 mmHg 79%
22:00 +13°C° 0 mm 2 mps 762 mmHg 79%
23:00 +12°C° 0 mm 2 mps 761 mmHg 79%

2 December, Wednesday

Time Temperature Precipitation Wind Pressure Humidity
00:00 +12°C° 0 mm 2 mps 761 mmHg 76%
01:00 +12°C° 0 mm 2 mps 761 mmHg 74%
02:00 +12°C° 0 mm 1 mps 761 mmHg 71%
03:00 +11°C° 0 mm 1 mps 760 mmHg 70%
04:00 +11°C° 0 mm 1 mps 760 mmHg 69%
05:00 +11°C° 0 mm 1 mps 760 mmHg 68%
06:00 +11°C° 0 mm 1 mps 760 mmHg 67%
07:00 +12°C° 0 mm 1 mps 760 mmHg 67%
08:00 +12°C° 0 mm 1 mps 760 mmHg 67%
09:00 +14°C° 0 mm 1 mps 759 mmHg 62%
10:00 +15°C° 0 mm 1 mps 759 mmHg 58%
11:00 +16°C° 0 mm 2 mps 759 mmHg 53%
12:00 +18°C° 0 mm 1 mps 759 mmHg 52%
13:00 +18°C° 0 mm 1 mps 758 mmHg 51%
14:00 +18°C° 0 mm 1 mps 757 mmHg 50%
15:00 +16°C° 0 mm 1 mps 757 mmHg 55%
16:00 +15°C° 0 mm 1 mps 758 mmHg 61%
17:00 +14°C° 0 mm 1 mps 758 mmHg 67%
18:00 +14°C° 0 mm 1 mps 758 mmHg 67%
19:00 +13°C° 0 mm 1 mps 758 mmHg 68%
20:00 +13°C° 0 mm 1 mps 757 mmHg 68%
21:00 +13°C° 0 mm 2 mps 757 mmHg 70%
22:00 +12°C° 0 mm 2 mps 757 mmHg 71%
23:00 +10°C° 0 mm 2 mps 757 mmHg 73%

3 December, Thursday

Time Temperature Precipitation Wind Pressure Humidity
00:00 +10°C° 0 mm 2 mps 757 mmHg 72%
01:00 +9°C° 0 mm 2 mps 756 mmHg 71%
02:00 +9°C° 0 mm 2 mps 756 mmHg 71%
03:00 +9°C° 0 mm 2 mps 756 mmHg 73%
04:00 +8°C° 0 mm 2 mps 755 mmHg 74%
05:00 +8°C° 0 mm 2 mps 755 mmHg 76%
06:00 +8°C° 0 mm 2 mps 755 mmHg 75%
07:00 +9°C° 0 mm 2 mps 755 mmHg 74%
08:00 +10°C° 0 mm 1 mps 755 mmHg 72%
09:00 +12°C° 0 mm 2 mps 755 mmHg 68%
10:00 +14°C° 0 mm 2 mps 755 mmHg 63%
11:00 +16°C° 0 mm 2 mps 755 mmHg 59%
12:00 +16°C° 0 mm 3 mps 754 mmHg 62%
13:00 +15°C° 0 mm 4 mps 753 mmHg 65%
14:00 +15°C° 0 mm 6 mps 753 mmHg 68%
15:00 +14°C° 0 mm 6 mps 753 mmHg 71%
16:00 +14°C° 0 mm 6 mps 753 mmHg 73%
17:00 +13°C° 0 mm 6 mps 752 mmHg 76%
18:00 +13°C° 0.1 mm 6 mps 752 mmHg 76%
19:00 +12°C° 0.1 mm 7 mps 752 mmHg 75%
20:00 +12°C° 0.1 mm 8 mps 752 mmHg 75%
21:00 +12°C° 0.1 mm 8 mps 752 mmHg 73%
22:00 +12°C° 0.1 mm 8 mps 751 mmHg 72%
23:00 +12°C° 0.1 mm 9 mps 751 mmHg 70%

4 December, Friday

Time Temperature Precipitation Wind Pressure Humidity
00:00 +11°C° 0.3 mm 9 mps 751 mmHg 71%
01:00 +11°C° 0.3 mm 9 mps 750 mmHg 71%
02:00 +10°C° 0.3 mm 9 mps 750 mmHg 71%
03:00 +10°C° 0.2 mm 9 mps 750 mmHg 72%
04:00 +8°C° 0.2 mm 9 mps 750 mmHg 72%
05:00 +8°C° 0.2 mm 9 mps 750 mmHg 73%
06:00 +8°C° 0.3 mm 9 mps 750 mmHg 71%
07:00 +8°C° 0.3 mm 9 mps 750 mmHg 69%
08:00 +9°C° 0.3 mm 8 mps 751 mmHg 68%
09:00 +10°C° 0.3 mm 9 mps 751 mmHg 65%
10:00 +10°C° 0.3 mm 9 mps 751 mmHg 62%
11:00 +9°C° 0.3 mm 10 mps 751 mmHg 59%
12:00 +9°C° 0.3 mm 10 mps 751 mmHg 59%
13:00 +9°C° 0.3 mm 10 mps 750 mmHg 59%
14:00 +9°C° 0.3 mm 11 mps 750 mmHg 58%
15:00 +9°C° 0.3 mm 10 mps 751 mmHg 61%
16:00 +8°C° 0.3 mm 9 mps 751 mmHg 64%
17:00 +7°C° 0.3 mm 9 mps 751 mmHg 68%
18:00 +7°C° 0.2 mm 8 mps 752 mmHg 69%
19:00 +7°C° 0.2 mm 8 mps 752 mmHg 69%
20:00 +7°C° 0.2 mm 8 mps 753 mmHg 70%
21:00 +7°C° 0.2 mm 8 mps 753 mmHg 71%
22:00 +7°C° 0.2 mm 8 mps 754 mmHg 71%
23:00 +7°C° 0.2 mm 8 mps 754 mmHg 72%
Show more